Weather Roundup
Issued by NWS Chicago, IL

Home | Current Version | Previous Version | Graphics & Text | Print | Product List | Glossary On
Versions: 1 2 3 4 5 6 7 8 9 10 11 12 13 14 15 16 17 18 19 20 21 22 23 24 25 26 27 28 29 30 31 32 33 34 35 36 37 38 39 40 41 42 43 44 45 46 47 48 49 50
000
NZUS59 KLOT 251300
HRRLOT

CHICAGO AREA WEATHER ROUNDUP
NATIONAL WEATHER SERVICE CHICAGO/ROMEOVILLE IL
700 AM CST SUN JAN 25 2015

NOTE: "FAIR" INDICATES FEW OR NO CLOUDS BELOW 12,000 FEET WITH NO
SIGNIFICANT WEATHER AND/OR OBSTRUCTIONS TO VISIBILITY.

* THESE STATIONS ARE NOT UNDER NWS QUALITY CONTROL. THEY ALSO MAY NOT
  REPORT WEATHER SUCH AS PRECIPITATION OR FOG.

ILZ005-006-012>014-019>023-251400-
NORTHEAST ILLINOIS

CITY           SKY/WX    TMP DP  RH WIND       PRES   REMARKS
OHARE          LGTSLEET  32  30  92 NE21      29.73R WCI  20
MIDWAY         LGT RAIN  37  34  89 NE12      29.71R
AURORA         LGT SNOW  33  29  85 NE24      29.70R FOG     WCI  20
WAUKEGAN       LGT SNOW  29  26  89 N15G24    29.76S FOG     WCI  18
DUPAGE AIRPORT LGT SNOW  32  30  92 NE18G26   29.71R FOG     WCI  20
WHEELING       LGT SNOW  32  29  88 NE13G24   29.76R FOG     WCI  22
NORTHERLY IS     N/A     34  33  96 N8          N/A  WCI  27
$$

WIZ051-052-058>065-066-070>072-251400-
SOUTHEAST WISCONSIN

CITY           SKY/WX    TMP DP  RH WIND       PRES   REMARKS
MILWAUKEE      LGT SNOW  27  22  81 NE20G29   29.82R WCI  13
KENOSHA*       LGT SNOW  28  24  85 NE20G25   29.79R FOG     WCI  15
RACINE*        FLURRIES  28  22  78 NE22G31   29.82R WCI  14
WAUKESHA       LGT SNOW  25  21  86 NE17G29   29.82R WCI  11
$$

INZ001>003-010>013-019-020-251400-
NORTHWEST INDIANA

CITY           SKY/WX    TMP DP  RH WIND       PRES   REMARKS
GARY*          CLOUDY    36  32  87 NE7       29.72R FOG
MICHIGAN CITY* NOT AVBL
RENSSELAER*    NOT AVBL
$$

LMZ740>746-251400-
SOUTHERN LAKE MICHIGAN

STATION/POSITION TIME  SKY/WX   TEMP WIND        PRES    VSBY
                                AIR  DIR/SP/G
                 (UTC)          (F)  (DEG/KT/KT) (MB)    (MI)
HARRISON CRIB    1200            35   50/ 11/ 11   N/A
BURNHAM HARBOR   1300            34   10/  6/  9   N/A
CALUMET HARBOR   1200            34   10/  5/  6   N/A
BURNS HARBOR     NOT AVBL
MICHIGAN CITY    1200            33   30/  7/  8   N/A
$$

ABBREVIATIONS USED IN REMARKS
   TC - TEMPERATURE IN CELSIUS
  WCI - WIND CHILL INDEX
   HX - HEAT INDEX
  VSB - VISIBILITY
$$


USA.gov is the U.S. government's official web portal to all federal, state and local government web resources and services.